Главная страница
METAR-TAF:

METAR-TAF

Аэропорты :

Центральная вертолётная станция Манхэттена

Нью-Йорк, Нью-Йорк, США

широта: 40-42-04N, долгота: 074-00-32W, высота над уровнем моря: 2 м

Текущие метеонаблюдения

Эта сводка был подготовлена 16 минут назад, в 14:06 UTC
Ветер 11 Узел от северо-восточный
Температура 13°C
Влажность 88%
Давление 1005 hPa
Видимость: 16.1 км
Сплошная облачность на высоте 1300 фута

METAR: KJRB 261406Z AUTO 04011KT 10SM OVC013 13/11 A2968 RMK AO2

Время: 10:22 (14:22 UTC)


TAF: отсутствует

Метеонаблюдения и прогнозы для более 4000 аэропортов (сводки METAR и TAF).

Имеющиеся станции представлены на карте желтыми и красными точками.

Чтобы увидеть название станции, наведите на нее мышь.

Затем щелкните, чтобы увидеть метеонаблюдения и метеопрогнозы.

Управление картой: чтобы увеличить масштаб, щелкните зеленые кнопки с черным крестиком; чтобы уменьшить масштаб, щелкните зеленую кнопку с тире; для просмотра соседних карт щелкайте зеленые стрелки.


METAR-TAF: